TimeMST,TemperatureF,Dew PointF,Humidity,Sea Level PressureIn,VisibilityMPH,Wind Direction,Wind SpeedMPH,Gust SpeedMPH,PrecipitationIn,Events,Conditions,WindDirDegrees,DateUTC
12:53 AM,36.0,19.0,50,30.41,8.0,WNW,3.5,-,N/A,,Clear,300,2013-02-16 07:53:00
1:53 AM,35.1,18.0,50,30.40,10.0,Calm,Calm,-,N/A,,Clear,0,2013-02-16 08:53:00
2:53 AM,33.1,18.0,54,30.40,10.0,SW,4.6,-,N/A,,Clear,230,2013-02-16 09:53:00
3:53 AM,33.1,19.0,56,30.39,10.0,SSE,3.5,-,N/A,,Clear,150,2013-02-16 10:53:00
4:53 AM,30.9,19.0,61,30.39,10.0,Calm,Calm,-,N/A,,Clear,0,2013-02-16 11:53:00
5:53 AM,32.0,18.0,56,30.40,10.0,SW,4.6,-,N/A,,Clear,230,2013-02-16 12:53:00
6:53 AM,30.9,17.1,57,30.41,9.0,Calm,Calm,-,N/A,,Clear,0,2013-02-16 13:53:00
7:53 AM,30.9,18.0,59,30.43,9.0,Calm,Calm,-,N/A,,Clear,0,2013-02-16 14:53:00
8:53 AM,37.0,18.0,46,30.43,10.0,Calm,Calm,-,N/A,,Clear,0,2013-02-16 15:53:00
9:53 AM,39.9,19.0,43,30.42,10.0,Calm,Calm,-,N/A,,Clear,0,2013-02-16 16:53:00
10:53 AM,42.1,18.0,38,30.40,10.0,Variable,3.5,-,N/A,,Clear,0,2013-02-16 17:53:00
11:53 AM,45.0,19.0,36,30.37,10.0,Calm,Calm,-,N/A,,Clear,0,2013-02-16 18:53:00
12:53 PM,48.2,19.4,32,30.33,10.0,Calm,Calm,-,N/A,,Clear,0,2013-02-16 19:53:00
1:53 PM,51.1,19.9,29,30.26,10.0,NE,3.5,-,N/A,,Clear,40,2013-02-16 20:53:00
2:53 PM,53.1,19.9,27,30.22,10.0,Variable,5.8,-,N/A,,Clear,0,2013-02-16 21:53:00
3:53 PM,54.0,19.0,25,30.19,10.0,ENE,4.6,-,N/A,,Clear,70,2013-02-16 22:53:00
4:53 PM,53.1,19.9,27,30.18,10.0,NE,4.6,-,N/A,,Clear,50,2013-02-16 23:53:00
5:53 PM,50.0,19.9,31,30.16,10.0,ESE,3.5,-,N/A,,Clear,110,2013-02-17 00:53:00
6:53 PM,46.9,19.9,34,30.17,10.0,SE,3.5,-,N/A,,Clear,130,2013-02-17 01:53:00
7:53 PM,46.4,21.2,37,30.15,10.0,SE,3.5,-,N/A,,Clear,140,2013-02-17 02:53:00
8:53 PM,45.0,19.0,36,30.14,10.0,Calm,Calm,-,N/A,,Clear,0,2013-02-17 03:53:00
9:53 PM,42.1,19.0,40,30.14,10.0,Calm,Calm,-,N/A,,Clear,0,2013-02-17 04:53:00
10:53 PM,39.9,19.9,45,30.12,6.0,Calm,Calm,-,N/A,,Haze,0,2013-02-17 05:53:00
11:53 PM,39.9,19.9,45,30.07,10.0,SE,3.5,-,N/A,,Clear,130,2013-02-17 06:53:00